This is the latest recevied weather packets stored in our database for station/object VE3DVC. If no packets are shown the sender has not sent any weather packets the latest 10 day(s).
| Time | Temp. | Humidity | Pressure | Rain* | Wind** | Luminosity | Snow |
|---|---|---|---|---|---|---|---|
| 1778278667 | 13.33° C | 50% | 1009.1 hPa | 0 mm | - | - | - |
| 1778277946 | 13.89° C | 47% | 1009.2 hPa | 0 mm | - | - | - |
| 1778277227 | 13.89° C | 46% | 1009.2 hPa | 0 mm | - | - | - |
| 1778276507 | 13.89° C | 46% | 1009.2 hPa | 0 mm | - | - | - |
| 1778275787 | 13.89° C | 46% | 1009.2 hPa | 0 mm | - | - | - |
| 1778275067 | 14.44° C | 47% | 1009.1 hPa | 0 mm | - | - | - |
| 1778274347 | 14.44° C | 49% | 1009.1 hPa | 0 mm | - | - | - |
| 1778273627 | 14.44° C | 48% | 1009.1 hPa | 0 mm | - | - | - |
| 1778272907 | 14.44° C | 51% | 1009.1 hPa | 0 mm | - | - | - |
| 1778272187 | 14.44° C | 51% | 1009.2 hPa | 0 mm | - | - | - |
| 1778271466 | 13.89° C | 52% | 1009.3 hPa | 0 mm | - | - | - |
| 1778270747 | 13.89° C | 51% | 1009.4 hPa | 0 mm | - | - | - |
| 1778270027 | 14.44° C | 50% | 1009.4 hPa | 0 mm | - | - | - |
| 1778269307 | 14.44° C | 50% | 1009.6 hPa | 0 mm | - | - | - |
| 1778268587 | 14.44° C | 52% | 1009.6 hPa | 0 mm | - | - | - |
| 1778267867 | 14.44° C | 56% | 1009.9 hPa | 0 mm | - | - | - |
| 1778267147 | 13.89° C | 55% | 1010 hPa | 0 mm | - | - | - |
| 1778266427 | 13.89° C | 55% | 1010.2 hPa | 0 mm | - | - | - |
| 1778265706 | 13.89° C | 57% | 1010.1 hPa | 0 mm | - | - | - |
| 1778264986 | 13.89° C | 59% | 1010.5 hPa | 0 mm | - | - | - |
| 1778264267 | 13.89° C | 58% | 1010.6 hPa | 0 mm | - | - | - |
| 1778263547 | 13.33° C | 59% | 1010.7 hPa | 0 mm | - | - | - |
| 1778262827 | 12.78° C | 63% | 1010.9 hPa | 0 mm | - | - | - |
| 1778262107 | 12.78° C | 61% | 1011 hPa | 0 mm | - | - | - |
| 1778261387 | 12.78° C | 61% | 1011.2 hPa | 0 mm | - | - | - |
* Rain latest hour (hover to see other rain measurements)
** Current wind speed in m/s (hover to see current wind gust speed)